UTC calendar date,Angular Size (deg),Planetocentric sub-spacecraft Longitude (deg),Planetocentric sub-spacecraft Latitude (deg),Planetocentric Subsolar Longitude (deg),Planetocentric Subsolar Latitude (deg),Planetographic Sub-Spacecraft Longitude (deg),Planetographic Sub-Spacecraft  Latitude (deg),Planetographic Solar Longitude (deg),Planetographic Solar Latitude (deg),Sub-Point Radius (km),Observer Distance (km),Phase Angle (deg)
2021-04-15 18:36:00.000000 UTC,16.68719378,52.10305555,14.38387804,-84.91384135,-0.06895915,307.8969445,16.34504715,84.91384135,-0.07885913,71177.39925,421535.8545,134.6216712
2021-04-15 18:46:00.000000 UTC,17.11233735,45.93760093,14.95175016,-90.95862213,-0.0689302,314.0623991,16.98187791,90.95862213,-0.07882601,71152.8211,409410.355,134.3252636
2021-04-15 18:56:00.000000 UTC,17.56495873,39.76503477,15.55053756,-97.00340292,-0.06890124,320.2349652,17.65235053,97.00340292,-0.0787929,71126.00048,397150.7476,134.0072475
2021-04-15 19:06:00.000000 UTC,18.04794907,33.58458839,16.18323997,-103.0481837,-0.06887228,326.4154116,18.35961463,103.0481837,-0.07875978,71096.66821,384751.7373,133.6653053
2021-04-15 19:16:00.000000 UTC,18.56462785,27.39537027,16.85328054,-109.0929645,-0.06884333,332.6046297,19.10724748,109.0929645,-0.07872667,71064.5128,372207.6869,133.2967803
2021-04-15 19:26:00.000000 UTC,19.11882587,21.19633964,17.56458525,-115.1377453,-0.06881437,338.8036604,19.89933093,115.1377453,-0.07869356,71029.17214,359512.5907,132.8986131
2021-04-15 19:36:00.000000 UTC,19.71498839,14.98627271,18.32168094,-121.182526,-0.06878541,345.0137273,20.7405456,121.182526,-0.07866044,70990.22319,346660.0476,132.4672628
2021-04-15 19:46:00.000000 UTC,20.35830428,8.76371909,19.12981757,-127.2273068,-0.06875646,351.2362809,21.63628731,127.2273068,-0.07862733,70947.1692,333643.2337,131.9986094
2021-04-15 19:56:00.000000 UTC,21.05486925,2.52694499,19.99512172,-133.2720876,-0.0687275,357.473055,22.59281184,133.2720876,-0.07859422,70899.42368,320454.8761,131.4878314
2021-04-15 20:06:00.000000 UTC,21.81189394,-3.7261421,20.92479122,-139.3168684,-0.06869854,3.7261421,23.61741658,139.3168684,-0.0785611,70846.29025,307087.2296,130.9292512
2021-04-15 20:16:00.000000 UTC,22.63797217,-9.9980944,21.92734426,-145.3616491,-0.06866959,9.9980944,24.71867026,145.3616491,-0.07852799,70786.93709,293532.058,130.3161391
2021-04-15 20:26:00.000000 UTC,23.54343021,-16.29206186,23.01294145,-151.4064299,-0.06864063,16.29206186,25.90670639,151.4064299,-0.07849487,70720.36441,279780.6269,129.64046
2021-04-15 20:36:00.000000 UTC,24.54078724,-22.61198397,24.193807,-157.4512107,-0.06861167,22.61198397,27.1936016,157.4512107,-0.07846176,70645.36282,265823.713,128.8925461
2021-04-15 20:46:00.000000 UTC,25.6453701,-28.96286196,25.48478583,-163.4959915,-0.06858271,28.96286196,28.59386848,163.4959915,-0.07842864,70560.45983,251651.6421,128.0606663
2021-04-15 20:56:00.000000 UTC,26.87614559,-35.35115403,26.90408975,-169.5407722,-0.06855376,35.35115403,30.12510474,169.5407722,-0.07839553,70463.85105,237254.3727,127.1304557
2021-04-15 21:06:00.000000 UTC,28.25686473,-41.78536474,28.47431039,-175.585553,-0.0685248,41.78536474,31.80885795,175.585553,-0.07836242,70353.31183,222621.6542,126.0841488
2021-04-15 21:16:00.000000 UTC,29.81766194,-48.27695042,30.22381306,178.3696663,-0.06849584,48.27695042,33.67179072,181.6303337,-0.0783293,70226.08492,207743.3033,124.8995367
2021-04-15 21:26:00.000000 UTC,31.59733111,-54.84176028,32.18868226,172.3248855,-0.06846689,54.84176028,35.74726925,187.6751145,-0.07829619,70078.74059,192609.6708,123.5485298
2021-04-15 21:36:00.000000 UTC,33.64662896,-61.50242636,34.4154749,166.2801047,-0.06843793,61.50242636,38.07755216,193.7198953,-0.07826307,69907.0107,177212.4183,121.9951494
2021-04-15 21:46:00.000000 UTC,36.03317222,-68.29252663,36.96516515,160.235324,-0.06840897,68.29252663,40.71683288,199.764676,-0.07822996,69705.61314,161545.8039,120.1926821
2021-04-15 21:56:00.000000 UTC,38.84886291,-75.26428255,39.91884374,154.1905432,-0.06838001,75.26428255,43.73548314,205.8094568,-0.07819684,69468.12318,145608.8124,118.0795968
2021-04-15 22:06:00.000000 UTC,42.22141255,-82.50388257,43.38593821,148.1457625,-0.06835106,82.50388257,47.22592157,211.8542375,-0.07816373,69187.05062,129408.7162,115.5736179
2021-04-15 22:16:00.000000 UTC,46.33263509,-90.16499398,47.51574489,142.1009817,-0.0683221,90.16499398,51.31040659,217.8990183,-0.07813061,68854.53682,112967.0956,112.5630601
2021-04-15 22:26:00.000000 UTC,51.44801384,-98.55171793,52.5119032,136.056201,-0.06829314,98.55171793,56.14992278,223.943799,-0.0780975,68464.70938,96330.17478,108.8941615
2021-04-15 22:36:00.000000 UTC,57.96470014,-108.3621963,58.64210082,130.0114202,-0.06826419,108.3621963,61.94724627,229.9885798,-0.07806439,68020.20382,79586.88108,104.3528373
2021-04-15 22:46:00.000000 UTC,66.48670498,-121.606471,66.19141601,123.9666395,-0.06823523,121.606471,68.9014267,236.0333605,-0.07803127,67548.52249,62901.06425,98.63954969
2021-04-15 22:56:00.000000 UTC,77.92354549,-146.5767821,74.94537727,117.9218587,-0.06820627,146.5767821,76.76434167,242.0781413,-0.07799816,67138.92221,46570.53772,91.33875937
2021-04-15 23:06:00.000000 UTC,93.51329704,144.2190768,78.93865205,111.877078,-0.06817731,215.7809232,80.2990792,248.122922,-0.07796504,67009.00898,31139.53885,81.89792302
2021-04-15 23:16:00.000000 UTC,114.1761154,90.37045802,66.10351136,105.8322972,-0.06814836,269.629542,68.82148122,254.1677028,-0.07793193,67553.43532,17621.81308,69.70497974
2021-04-15 23:26:00.000000 UTC,136.4505572,70.14485799,44.5354329,99.78751649,-0.0681194,289.855142,48.37068945,260.2124835,-0.07789881,69093.9903,7906.784403,54.809748
2021-04-15 23:36:00.000000 UTC,140.8007339,57.49010422,19.30229037,93.74273575,-0.06809044,302.5098958,21.82715788,266.2572643,-0.0778657,70937.78676,4955.729703,41.57749031
2021-04-15 23:46:00.000000 UTC,120.8475978,47.04834806,-4.45462846,87.69795501,-0.06806148,312.9516519,-5.09099697,272.302045,-0.07783258,71461.06212,10742.5516,40.90520995
2021-04-15 23:56:00.000000 UTC,99.04836752,37.32945987,-23.06342652,81.65317427,-0.06803252,322.6705401,-25.96184077,278.3468257,-0.07779947,70717.21206,23289.51558,49.92802674
2021-04-16 00:06:00.000000 UTC,82.0816153,27.75399007,-36.80336636,75.60839354,-0.06800357,332.2460099,-40.55027071,284.3916065,-0.07776635,69718.51369,39217.85857,59.2909977
2021-04-16 00:16:00.000000 UTC,69.59087246,18.01973642,-47.0857437,69.5636128,-0.06797461,341.9802636,-50.88875635,290.4363872,-0.07773324,68888.85789,56461.58101,66.84011645
2021-04-16 00:26:00.000000 UTC,60.32593029,7.91148523,-54.98419304,63.51883207,-0.06794565,352.0885148,-58.50573904,296.4811679,-0.07770012,68280.03407,74070.68762,72.77255069
2021-04-16 00:36:00.000000 UTC,53.28809375,-2.76841951,-61.18096944,57.47405134,-0.06791669,2.76841951,-64.30701571,302.5259487,-0.07766701,67850.97824,91628.55912,77.50701974
2021-04-16 00:46:00.000000 UTC,47.80065463,-14.22809023,-66.10382616,51.42927061,-0.06788774,14.22809023,-68.82176755,308.5707294,-0.07763389,67553.4177,108952.9843,81.36789459
2021-04-16 00:56:00.000000 UTC,43.41748348,-26.69090367,-70.02257982,45.38448989,-0.06785878,26.69090367,-72.36520763,314.6155101,-0.07760078,67349.27628,125967.2609,84.58092602
2021-04-16 01:06:00.000000 UTC,39.8413705,-40.37168458,-73.10593776,39.33970916,-0.06782982,40.37168458,-75.12660615,320.6602908,-0.07756766,67211.23195,142644.0439,87.30235718
2021-04-16 01:16:00.000000 UTC,36.86989271,-55.40680622,-75.45704461,33.29492844,-0.06780086,55.40680622,-77.21875134,326.7050716,-0.07753455,67120.18341,158979.7065,89.64227196
2021-04-16 01:26:00.000000 UTC,34.36172177,-71.73015407,-77.14131033,27.25014771,-0.0677719,71.73015407,-78.71130135,332.7498523,-0.07750143,67062.81195,174982.0582,91.6800355
2021-04-16 01:36:00.000000 UTC,32.21576311,-88.94716248,-78.21395562,21.20536699,-0.06774295,88.94716248,-79.65945472,338.794633,-0.07746832,67029.77072,190664.2254,93.47418725
2021-04-16 01:46:00.000000 UTC,30.3580547,-106.3459734,-78.74494898,15.16058628,-0.06771399,106.3459734,-80.12818759,344.8394137,-0.0774352,67014.43433,206041.5188,95.0688258
2021-04-16 01:56:00.000000 UTC,28.73336506,-123.1335892,-78.82953094,9.11580556,-0.06768503,123.1335892,-80.20281516,350.8841944,-0.07740209,67012.05415,221129.8085,96.49780841
2021-04-16 02:06:00.000000 UTC,27.29968088,-138.7397763,-78.57779248,3.07102484,-0.06765607,138.7397763,-79.98067411,356.9289752,-0.07736897,67019.18898,235944.6871,97.78757437
2021-04-16 02:16:00.000000 UTC,26.02450838,-152.9420563,-78.09434529,-2.97375587,-0.06762711,152.9420563,-79.5538127,2.97375587,-0.07733586,67033.31891,250501.0532,98.95908533
2021-04-16 02:26:00.000000 UTC,24.88233814,-165.7873895,-77.46407694,-9.01853659,-0.06759816,165.7873895,-78.99679369,9.01853659,-0.07730274,67052.58108,264812.9243,100.0291867
2021-04-16 02:36:00.000000 UTC,23.85287243,-177.4535062,-76.74879403,-15.0633173,-0.0675692,177.4535062,-78.36388991,15.0633173,-0.07726963,67075.58647,278893.3737,101.0115811
2021-04-16 02:46:00.000000 UTC,22.91976282,171.8511425,-75.99054306,-21.108098,-0.06754024,188.1488575,-77.69204786,21.108098,-0.07723651,67101.29168,292754.535,101.9175374
2021-04-16 02:56:00.000000 UTC,22.06969582,161.9354089,-75.216763,-27.15287871,-0.06751128,198.0645912,-77.00541786,27.15287871,-0.07720339,67128.9079,306407.6417,102.7564151
2021-04-16 03:06:00.000000 UTC,21.29172025,152.6406453,-74.4448618,-33.19765942,-0.06748232,207.3593547,-76.31936483,33.19765942,-0.07717028,67157.8357,319863.0829,103.5360573
2021-04-16 03:16:00.000000 UTC,20.57674536,143.8409153,-73.68560403,-39.24244013,-0.06745337,216.1590847,-75.64343326,39.24244013,-0.07713716,67187.61768,333130.467,104.2630909
2021-04-16 03:26:00.000000 UTC,19.91716135,135.4380813,-72.94542756,-45.28722083,-0.06742441,224.5619187,-74.98337365,45.28722083,-0.07710405,67217.90388,346218.6848,104.9431567
2021-04-16 03:36:00.000000 UTC,19.30654898,127.3560545,-72.22797328,-51.33200153,-0.06739545,232.6439455,-74.34248021,51.33200153,-0.07707093,67248.42614,359135.9715,105.5810895
2021-04-16 03:46:00.000000 UTC,18.73945493,119.5357173,-71.53508133,-57.37678223,-0.06736649,240.4642827,-73.72246211,57.37678223,-0.07703782,67278.97902,371889.9643,106.181059
2021-04-16 03:56:00.000000 UTC,18.21121603,111.9308663,-70.86743802,-63.42156293,-0.06733753,248.0691337,-73.1240096,63.42156293,-0.0770047,67309.40544,384487.7555,106.7466829
2021-04-16 04:06:00.000000 UTC,17.71782065,104.5051069,-70.22499677,-69.46634363,-0.06730857,255.4948931,-72.54716258,69.46634363,-0.07697159,67339.58575,396935.9417,107.2811164
2021-04-16 04:16:00.000000 UTC,17.25579823,97.22951942,-69.60725311,-75.51112432,-0.06727962,262.7704806,-71.99155177,75.51112432,-0.07693847,67369.42949,409240.6674,107.7871254
2021-04-16 04:26:00.000000 UTC,16.82213058,90.08091638,-69.013425,-81.55590502,-0.06725066,269.9190836,-71.45655709,81.55590502,-0.07690535,67398.86894,421407.6656,108.2671458
2021-04-16 04:36:00.000000 UTC,16.41418014,83.04053955,-68.44257139,-87.60068571,-0.0672217,276.9594605,-70.94141206,87.60068571,-0.07687224,67427.85422,433442.2928,108.7233323